Regional Weather Roundup
Issued by NWS

Home | Current Version | Previous Version | Text Only | Print | Product List | Glossary Off
Versions: 1 2 3 4 5 6 7 8 9 10 11 12 13 14 15 16 17 18 19 20 21 22 23 24 25 26 27 28 29 30 31 32 33 34 35 36 37 38 39 40 41 42 43 44 45 46 47 48 49 50

000
ASUS43 KLMK 232110
RWRKY
KENTUCKY REGIONAL WEATHER ROUNDUP
NATIONAL WEATHER SERVICE LOUISVILLE KY
400 PM EST SUN NOV 23 2014

NOTE "FAIR" INDICATES FEW OR NO CLOUDS BELOW 12,000 FEET
WITH NO SIGNIFICANT WEATHER AND/OR OBSTRUCTIONS TO VISIBILITY.

KYZ001>023-026-027-061>063-070>075-232200-
WESTERN AND SOUTH CENTRAL KENTUCKY

CITY           SKY/WX    TMP DP  RH WIND       PRES   REMARKS
PADUCAH        RAIN      56  54  93 E10       29.36F FOG
HENDERSON      CLOUDY    55  52  88 SE5       29.44F
OWENSBORO      LGT RAIN  57  56  97 SE16      29.47F FOG
HOPKINSVILLE   RAIN      57  57 100 SE15G22   29.41F FOG
BOWLING GREEN  RAIN      58  55  90 SE9       29.51F FOG
GLASGOW        HVY RAIN  56  56  97 SE10G17   29.52F
$$

KYZ024-025-028>034-038-045-046-053-232200-
NORTH CENTRAL KENTUCKY

CITY           SKY/WX    TMP DP  RH WIND       PRES   REMARKS
LOUISVILLE/SDF LGT RAIN  54  52  93 E10       29.54F FOG
LOUISVILLE/LOU RAIN      54  51  90 SE9G18    29.54F FOG
FORT KNOX      LGT RAIN  52  51  94 E13       29.52F FOG
$$

KYZ035>037-039>044-047>052-055>060-089>105-232200-
NORTHEAST KENTUCKY

CITY           SKY/WX    TMP DP  RH WIND       PRES   REMARKS
LEXINGTON      CLOUDY    53  51  93 SE16G25   29.61F
COVINGTON      LGT RAIN  55  48  77 SE18      29.63F
FRANKFORT      CLOUDY    53  50  89 E17       29.58F
$$

KYZ054-064>069-076>088-106>120-232200-
SOUTHEAST KENTUCKY

CITY           SKY/WX    TMP DP  RH WIND       PRES   REMARKS
JACKSON        LGT RAIN  53  50  89 VRB3      29.69F FOG
LONDON         LGT RAIN  59  50  72 SE10G18   29.64F
SOMERSET       LGT RAIN  54  52  94 CALM      29.63F
MIDDLESBORO    LGT RAIN  55  50  83 CALM      29.73F
MONTICELLO     CLOUDY    57  52  84 SE12      29.62F
$$



USA.gov is the U.S. government's official web portal to all federal, state and local government web resources and services.